Revelstoke,

7:00 PM PST on January 21, 2018 (GMT -0800)
Revelstoke

Weather History for CYRV - July, 2013

Change the Weather History Date:

Thursday, July 25, 2013

  Actual Average Record
Temperature  
Mean Temperature 77 °F -  
Max Temperature 97 °F 75 °F 97 °F (2013)
Min Temperature 57 °F 51 °F 48 °F (2001)
Cooling Degree Days 12    
Growing Degree Days 27 (Base 50)    
Moisture  
Dew Point 51 °F    
Average Humidity 50    
Maximum Humidity 82    
Minimum Humidity 6    
Precipitation  
Precipitation 0.00 in 0.08 in - ()
Sea Level Pressure  
Sea Level Pressure 29.93 in    
Wind  
Wind Speed 3 mph ()    
Max Wind Speed 15 mph    
Max Gust Speed 18 mph    
Visibility 8.9 miles    
Events      
Averages and records for this station are not official NWS values.
T = Trace of Precipitation, MM = Missing Value Source: Averaged Metar Reports

Daily Weather History Graph

Daily Weather History Graph

Search for Another Location

Airport or City:

Trip Planner

Search our weather history database for the weather conditions in past years. The results will help you decide how hot, cold, wet, or windy it might be!

Date:

Astronomy

Jul. 25, 2013 Rise Set
Actual Time 5:09 AM PDT 8:48 PM PDT
Civil Twilight 4:27 AM PDT 9:29 PM PDT
Nautical Twilight 3:30 AM PDT 10:25 PM PDT
Astronomical Twilight 2:04 AM PDT 11:49 PM PDT
Moon 9:56 PM PDT (7/25) 9:15 AM PDT (7/25)
Length of Visible Light 17h 02m
Length of Day
15h 39m
Waning Gibbous, 87% of the Moon is Illuminated
Jul 25
Waning Gibbous
Jul 29
Last Quarter
Aug 6
New
Aug 14
First Quarter
Aug 20
Full

Hourly Weather History & Observations

Time (PDT) Temp. Heat Index Dew Point Humidity Pressure Visibility Wind Dir Wind Speed Gust Speed Precip Events Conditions
12:00 AM 68.0 °F - 55.4 °F 64% 29.92 in 9.0 mi Variable 3.5 mph - N/A   Clear
1:00 AM 64.4 °F - 55.4 °F 73% 29.94 in 9.0 mi Variable 2.3 mph - N/A   Clear
2:00 AM 64.4 °F - 55.4 °F 73% 29.96 in 9.0 mi Calm Calm - N/A   Clear
3:00 AM 62.6 °F - 53.6 °F 72% 29.97 in 9.0 mi WNW 3.5 mph - N/A   Clear
4:00 AM 60.8 °F - 55.4 °F 82% 29.99 in 9.0 mi Calm Calm - N/A   Clear
5:00 AM 57 °F - 53 °F 81% 29.98 in - NW 1.2 mph - -  
5:00 AM 59.0 °F - 53.6 °F 82% 29.99 in 9.0 mi WSW 3.5 mph - N/A   Clear
6:00 AM 59.0 °F - 53.6 °F 82% 30.01 in 9.0 mi Calm Calm - N/A   Clear
7:00 AM 59.0 °F - 53.6 °F 82% 30.01 in 9.0 mi SSE 3.5 mph - N/A   Clear
8:00 AM 64.4 °F - 51.8 °F 64% 30.01 in 9.0 mi Calm Calm - N/A   Clear
9:00 AM 69.8 °F - 55.4 °F 60% 30.00 in 9.0 mi Variable 2.3 mph - N/A   Clear
10:00 AM 69.8 °F - 57.2 °F 64% 29.99 in 9.0 mi South 3.5 mph - N/A   Clear
11:00 AM 71.6 °F - 59.0 °F 64% 29.96 in 9.0 mi South 5.8 mph - N/A   Clear
12:00 PM 75.2 °F - 57.2 °F 53% 29.94 in 9.0 mi South 8.1 mph - N/A   Clear
1:00 PM 78.8 °F - 53.6 °F 42% 29.92 in 9.0 mi South 4.6 mph - N/A   Clear
2:00 PM 86 °F - 50 °F 19% 29.89 in - South 4.6 mph - -  
3:00 PM 80.6 °F 80.8 °F 57.2 °F 45% 29.89 in 7.0 mi South 5.8 mph - N/A   Clear
4:00 PM 82.4 °F 82.9 °F 60.8 °F 48% 29.87 in 9.0 mi South 3.5 mph - N/A   Clear
4:33 PM 93.2 °F - 42.8 °F 17% 29.86 in 9.0 mi NW 15.0 mph - N/A   Clear
5:00 PM 97 °F - 38 °F 6% 29.85 in - NW 11.5 mph - -  
5:00 PM 93.2 °F - 39.2 °F 15% 29.86 in 9.0 mi NW 12.7 mph 18.4 mph N/A   Clear
6:00 PM 93.2 °F - 39.2 °F 15% 29.86 in 9.0 mi NW 8.1 mph 18.4 mph N/A   Clear
7:00 PM 91.4 °F - 44.6 °F 20% 29.87 in 9.0 mi North 6.9 mph - N/A   Clear
8:00 PM 85 °F - 49 °F 19% 29.87 in - WSW 2.3 mph - -  
8:00 PM 84.2 °F - 46.4 °F 27% 29.88 in 9.0 mi Calm Calm - N/A   Clear
9:00 PM 78.8 °F - 48.2 °F 34% 29.90 in 9.0 mi North 5.8 mph - N/A   Clear
10:00 PM 71.6 °F - 48.2 °F 43% 29.92 in 9.0 mi Variable 2.3 mph - N/A   Clear
11:00 PM 65 °F - 49 °F 45% 29.92 in - WSW 2.3 mph - -  
11:00 PM 68.0 °F - 48.2 °F 49% 29.94 in 9.0 mi Variable 2.3 mph - N/A   Clear